Flag for Mexico Weather past 2 weeks in Matamoros, Tamaulipas, Mexico

Now
79 °F

Passing clouds.


Feels Like: 83 °F
Forecast: 78 / 90 °F
Wind: 5 mph from Southeast

Location: Brownsville / South Padre Island International Airport

Current Time: Sep 18, 2014 at 7:01:51 AM

Latest Report: Sep 18, 2014 at 5:53 AM


Visibility: 10 mi

Pressure: 29.83 "Hg

Humidity: 94%

Dew point: 77 °F

Location of MatamorosLocation

Historic Weather in Matamoros — Graph

°F

Matamoros temperature yesterday

Maximum temperature yesterday: 90 °F (at 1:53 PM)
Minimum temperature yesterday: 76 °F (at 6:53 AM)
Average temperature yesterday: 82 °F

Past Weeks' High & Low Weather Summary

 TemperatureHumidityPressure
High93 °F (Sep 10, 1:53 PM)100% (Sep 3, 9:57 AM)30.08 "Hg (Sep 3, 9:57 AM)
Low73 °F (Sep 15, 4:53 AM)51% (Sep 8, 2:53 PM)29.80 "Hg (Sep 10, 5:53 PM)
Average81 °F85%29.95 "Hg
* Reported Sep 3 5:53 AM — Sep 18 5:53 AM, Matamoros, Weather by CustomWeather, © 2014

Note: Actual official high and low records may vary slightly from our data, if they occured in-between our weather recording intervals... More about our weather records

Advertising

Matamoros weather history for previous 24 hours

 ConditionsComfort  
Time TempWeatherWind HumidityBarometerVisibility
5:53 AM
Sep 18
79 °FPassing clouds.5 mph94%29.83 "Hg10 mi
4:53 AM78 °FClear.5 mph93%29.83 "Hg10 mi
3:53 AM78 °FPassing clouds.5 mph93%29.85 "Hg9 mi
2:53 AM78 °FPassing clouds.5 mph93%29.86 "Hg10 mi
1:53 AM78 °FClear.6 mph93%29.87 "Hg10 mi
12:53 AM78 °FClear.5 mph93%29.89 "Hg10 mi
11:53 PM
Sep 17
79 °FClear.6 mph94%29.89 "Hg10 mi
10:53 PM80 °FClear.6 mph90%29.89 "Hg10 mi
9:53 PM80 °FClear.7 mph90%29.89 "Hg10 mi
8:53 PM81 °FClear.7 mph88%29.87 "Hg10 mi
7:53 PM82 °FSunny.7 mph82%29.85 "Hg10 mi
6:53 PM85 °FSunny.13 mph75%29.85 "Hg10 mi
5:53 PM88 °FSunny.15 mph65%29.84 "Hg10 mi
4:53 PM89 °FPassing clouds.15 mph68%29.85 "Hg10 mi
3:53 PM90 °FScattered clouds.14 mph66%29.85 "Hg10 mi
2:53 PM90 °FPartly sunny.13 mph66%29.87 "Hg10 mi
1:53 PM90 °FScattered clouds.9 mph68%29.90 "Hg10 mi
12:53 PM87 °FLight rain. Scattered clouds.14 mph72%29.92 "Hg10 mi
11:53 AM88 °FPassing clouds.14 mph73%29.94 "Hg10 mi
10:53 AM87 °FPassing clouds.12 mph75%29.96 "Hg10 mi
9:53 AM83 °FPassing clouds.6 mph88%29.96 "Hg10 mi
8:53 AM81 °FSunny.3 mph91%29.94 "Hg9 mi
7:53 AM77 °FClear.No wind94%29.93 "Hg10 mi
Weather by CustomWeather, © 2014

See weather overviewHow to use our weather pages